Wind_Speed
21 22 23 24 27 31 33 36 39 42 45 49 51 54 56 58 61 64 66 68 69 70 71 70 70 70 68 65 62 58 56 55 54 54 54 55 56 56 58 59 59 60 62 65 66 66 65 65 64 65 67 69 71 73 75 76 78 80 82 82 84 87 90 93 94 93 94 92 89 90 88 86 86 83 82 80 77 74 72 68 63 59 56 57 58 58 59 60
21 22 24 27 30 32 35 38 41 44 48 50 53 55 58 60 63 66 68 70 70 71 71 71 71 70 67 63 60 56 53 50 50 49 49 50 50 51 51 52 52 53 55 60 63 64 64 62 61 62 63 65 66 68 69 70 71 72 74 76 78 83 87 91 92 91 92 90 89 90 86 83 84 84 82 78 76 74 72 69 65 59 54 53 53 55 56 58
22 24 27 29 32 34 37 40 43 46 49 52 55 57 60 62 65 68 70 71 72 72 72 72 72 70 66 62 58 54 49 47 45 45 44 44 44 44 44 44 45 46 50 54 58 60 61 59 58 59 59 60 62 63 64 65 65 66 67 69 74 80 83 85 86 87 88 88 87 86 83 81 83 84 82 77 76 75 72 68 64 58 54 52 52 54 55 55
24 26 29 31 33 35 38 41 45 48 51 54 56 59 61 64 68 71 73 73 73 74 74 74 74 70 65 61 57 52 48 45 43 42 42 40 39 39 38 37 37 39 42 47 52 55 56 55 54 55 56 56 58 59 60 60 61 61 61 64 70 75 78 80 82 83 84 84 84 79 78 81 81 81 80 76 73 71 70 65 60 55 54 54 54 55 55 55
26 28 30 32 34 36 39 43 46 50 53 55 58 60 63 66 70 73 74 75 75 75 76 76 75 70 65 60 56 52 50 47 45 44 43 41 39 37 35 33 32 33 35 38 43 47 49 50 50 51 53 54 54 55 56 57 57 57 58 61 64 67 72 76 77 77 77 78 77 71 74 81 80 76 75 73 70 67 65 62 60 55 53 52 50 50 51 52
27 29 31 33 35 37 41 44 48 52 54 57 59 62 64 68 72 74 76 76 77 77 78 78 75 70 65 60 57 55 55 53 51 49 46 44 41 38 35 32 29 28 29 31 34 38 42 44 44 46 49 51 52 52 53 54 55 55 55 56 57 61 65 69 70 71 71 73 73 65 66 76 78 74 71 70 69 66 61 58 60 59 56 53 50 50 51 51
29 30 32 34 36 39 42 46 50 53 55 58 61 63 66 70 73 76 77 78 78 79 79 79 76 70 65 62 61 61 61 58 55 52 49 45 42 38 34 30 27 23 23 25 26 29 34 37 38 39 42 45 47 48 48 50 52 52 53 52 53 54 55 60 64 66 68 71 72 68 65 68 71 69 68 67 65 64 59 54 56 59 59 55 52 50 50 50
30 31 33 35 37 40 43 47 51 54 57 59 62 64 67 71 74 76 78 78 79 79 80 79 75 70 66 64 65 65 63 59 55 51 47 44 41 37 32 28 24 20 18 19 20 22 25 28 31 32 34 38 40 41 43 45 47 48 48 47 47 47 48 53 56 58 63 64 64 63 62 63 62 59 61 61 59 59 57 51 50 54 55 52 49 45 42 44
31 32 34 36 39 41 44 48 52 55 57 60 63 65 68 72 75 77 78 79 79 79 80 79 74 68 66 66 66 64 59 55 50 46 42 39 37 34 30 27 23 17 13 13 15 17 18 20 23 26 27 30 33 35 38 39 41 42 43 43 43 42 43 45 46 49 54 58 58 58 59 57 52 49 51 51 51 53 52 52 52 49 47 48 48 44 41 41
33 33 35 37 39 42 44 48 52 55 58 61 63 66 69 73 75 77 78 78 79 79 80 79 73 67 67 66 64 60 55 50 45 40 37 35 34 33 30 25 21 16 11 7 9 11 13 15 17 20 22 24 27 30 33 33 34 36 37 39 39 40 39 36 37 41 45 51 55 57 56 50 45 44 43 42 44 48 49 51 53 49 43 44 45 44 45 45
33 34 35 38 40 42 45 48 52 55 58 61 64 67 70 73 75 76 77 78 78 79 79 77 71 67 66 65 62 57 50 45 39 34 32 31 31 32 30 26 21 17 11 3 4 8 11 13 14 17 19 21 23 25 26 28 30 31 34 36 37 37 34 30 29 32 38 44 50 54 54 50 48 47 41 38 40 45 48 45 44 44 41 40 42 45 45 42
34 34 36 38 40 43 45 49 52 55 58 61 64 67 70 73 74 75 76 77 77 78 78 75 70 66 65 63 58 52 46 41 35 30 28 28 29 30 31 29 26 22 17 11 10 12 15 17 17 18 21 23 24 24 25 27 29 30 33 35 36 34 31 29 30 29 31 37 43 47 49 49 48 47 43 40 42 43 44 42 37 38 37 36 38 42 42 38
34 35 36 38 40 42 45 48 52 55 58 61 64 67 70 72 73 74 75 75 76 77 77 73 69 65 63 60 55 48 42 37 32 27 25 26 29 31 33 33 31 29 25 19 17 17 19 23 24 25 27 30 32 32 31 31 33 33 33 32 32 32 30 31 34 32 28 28 34 40 44 47 47 46 44 42 44 42 40 39 36 34 35 33 35 41 43 39
34 35 36 37 39 42 45 48 52 55 58 61 64 67 70 72 72 73 74 74 74 75 75 71 66 63 61 58 52 44 38 33 28 25 24 26 30 33 36 37 37 35 31 27 24 23 24 27 29 30 32 34 37 38 36 34 37 37 35 34 32 32 31 32 34 33 29 26 30 38 44 49 50 45 41 39 40 41 41 38 35 35 34 31 33 41 43 39
33 34 36 37 39 42 45 48 52 55 58 61 63 66 70 71 71 72 72 72 73 74 73 69 64 62 59 55 49 41 34 29 25 23 22 26 32 37 40 41 42 40 37 34 31 30 31 33 34 34 36 37 39 41 39 38 38 36 35 35 34 34 35 36 36 36 35 32 32 40 47 50 50 43 37 37 36 39 42 37 35 36 32 29 35 41 42 39
32 33 35 36 38 41 44 47 51 54 57 60 63 65 69 70 70 71 71 70 71 72 71 66 62 60 56 52 48 40 32 25 22 21 20 26 33 41 45 45 46 46 43 41 39 39 40 41 40 40 42 44 43 45 45 45 44 40 39 38 36 38 40 38 37 39 39 36 35 39 46 50 47 41 39 41 39 40 41 40 41 36 28 30 39 43 41 39
31 32 34 36 38 41 44 46 50 53 56 60 63 65 68 69 68 69 69 69 69 69 68 64 60 57 54 51 47 39 31 24 20 19 20 25 33 41 46 49 51 50 48 47 46 46 47 47 46 46 48 51 50 51 51 52 51 46 44 43 42 43 42 38 37 39 39 38 39 38 43 50 47 42 42 43 42 42 43 46 45 34 26 32 39 42 41 39
30 31 34 36 38 41 44 46 49 52 55 58 61 64 67 68 67 68 68 67 67 67 66 61 57 55 52 49 45 39 31 23 19 18 19 24 32 40 45 50 54 53 51 50 50 50 51 51 52 53 53 55 56 56 57 56 54 51 51 51 47 45 42 39 39 40 39 40 42 40 42 49 47 42 42 43 45 46 47 50 43 30 27 33 40 41 40 40
30 31 33 36 38 40 43 45 48 51 54 57 60 62 66 67 67 66 66 65 64 65 63 58 54 52 49 47 43 38 32 24 20 18 18 23 33 40 44 50 54 55 54 52 51 52 54 55 57 58 57 58 57 57 58 57 56 56 57 55 48 45 42 40 41 42 41 39 42 43 42 44 42 39 40 44 48 49 50 50 40 30 30 35 40 40 39 38
30 31 33 36 38 40 43 45 47 50 53 56 59 61 64 66 65 64 64 63 62 62 60 55 51 47 45 45 42 37 31 26 24 20 16 22 32 39 44 50 53 54 55 55 53 53 54 55 55 56 57 59 59 58 58 57 57 55 54 52 47 44 44 42 42 41 39 38 42 44 40 37 35 35 39 44 49 50 49 46 39 34 36 37 37 36 35 32
31 32 34 36 38 40 43 45 47 49 52 55 58 60 62 64 64 63 62 61 60 59 58 53 48 43 41 43 40 35 30 26 24 21 17 18 30 39 44 50 52 53 54 54 52 51 50 51 53 53 55 58 60 58 56 55 54 52 51 51 48 46 47 47 45 43 42 42 44 41 35 31 29 32 36 38 40 44 44 42 37 34 33 32 30 28 26 25
32 33 34 36 37 40 43 45 46 49 51 54 58 60 62 64 63 62 60 58 57 57 55 51 46 40 39 40 38 34 31 27 24 21 18 18 26 36 42 47 50 51 53 52 51 51 50 51 54 56 57 59 60 58 54 53 52 50 51 52 51 49 49 48 46 45 43 42 39 36 34 32 31 32 33 31 33 38 40 37 33 29 26 25 24 23 24 25
33 33 33 35 37 39 42 44 46 48 51 53 57 59 60 63 62 60 58 56 55 54 53 50 44 38 36 36 36 34 31 29 28 25 23 25 29 33 37 42 46 50 52 50 50 52 51 53 56 58 59 59 59 58 56 55 53 51 50 50 49 48 46 44 43 43 41 39 36 35 34 33 31 30 29 28 31 37 40 36 30 27 26 26 25 25 25 26
34 33 33 35 36 39 41 44 45 47 50 53 56 58 59 61 61 59 57 54 52 52 51 48 43 37 33 32 32 32 31 31 32 30 28 32 35 36 37 40 43 47 49 48 49 50 51 54 57 58 58 56 56 56 55 54 53 50 47 46 46 45 43 42 41 40 39 36 33 31 30 27 25 24 24 26 31 37 39 35 30 28 28 27 26 25 24 22
35 34 34 35 37 38 41 43 45 46 49 52 55 57 58 60 61 58 55 52 50 49 49 46 41 36 30 27 29 30 30 32 33 34 33 33 36 38 40 41 41 44 47 49 50 52 53 55 57 57 56 54 53 52 49 48 48 45 43 43 43 42 41 40 38 37 36 33 30 28 26 24 22 22 24 26 30 34 34 31 29 28 26 23 22 22 20 18
35 35 35 36 37 38 40 42 44 46 48 51 54 56 57 59 60 57 54 51 48 46 46 44 40 35 27 23 27 29 26 27 31 34 35 35 36 37 38 39 39 42 47 50 52 55 55 55 56 55 54 50 48 46 43 43 43 42 42 42 41 40 40 39 36 33 31 29 28 27 24 23 25 25 25 27 29 30 29 27 25 24 22 20 19 19 18 19
35 35 34 35 36 38 39 41 43 45 47 50 52 55 57 58 59 56 52 49 46 44 43 42 39 34 25 21 25 27 23 20 27 32 34 35 36 36 37 39 40 43 47 50 52 54 53 52 51 49 47 43 42 40 37 37 37 38 39 38 38 39 38 36 32 28 26 25 26 25 21 20 23 24 25 25 24 24 24 23 21 19 18 18 19 19 19 20
35 35 34 35 36 37 39 41 43 44 46 48 51 54 56 57 58 55 51 48 44 42 41 40 38 33 25 21 22 24 22 17 24 30 33 35 35 37 38 39 39 40 41 43 45 47 46 45 43 40 38 36 36 34 31 32 34 35 36 36 36 35 34 32 28 25 26 26 27 25 22 20 19 21 23 22 20 20 20 19 17 16 16 18 19 19 19 18
36 36 35 36 36 37 39 40 42 44 45 48 51 53 55 56 56 54 50 47 42 39 38 37 37 32 25 21 21 21 20 13 21 29 33 35 36 37 37 37 37 36 36 37 38 39 38 38 37 36 34 34 34 33 32 33 34 34 33 33 34 33 32 30 27 27 29 29 32 31 27 23 20 21 23 21 18 18 17 16 16 16 18 18 18 18 17 16
36 37 36 36 36 37 38 40 41 43 45 47 50 53 55 56 55 53 49 46 41 37 35 35 35 32 26 21 20 19 15 10 21 30 32 34 35 35 36 36 36 35 34 35 35 36 37 37 37 35 34 33 33 33 33 33 32 31 29 29 29 29 29 27 28 31 29 29 33 33 29 25 21 21 22 21 18 16 16 17 18 19 18 17 17 16 16 15
36 37 37 37 37 37 38 40 41 42 44 47 50 53 54 55 55 52 48 44 40 35 33 32 32 32 27 21 19 15 10 12 24 31 30 31 32 30 30 31 30 30 29 30 30 32 33 33 33 32 30 30 29 28 29 30 29 29 29 28 27 27 26 25 29 31 26 26 31 31 29 26 22 20 19 20 19 19 19 19 19 19 18 17 16 15 15 15
37 37 37 37 37 37 38 40 41 42 44 47 50 52 54 55 54 51 46 43 39 34 31 30 29 30 27 20 17 11 7 10 18 27 26 25 26 25 25 26 26 25 25 25 25 26 27 27 28 28 28 28 27 26 26 26 26 27 28 28 27 28 27 27 30 29 24 26 28 26 27 24 19 18 19 19 20 21 21 21 20 19 18 17 16 15 15 14
37 37 38 37 37 37 38 39 41 43 45 47 50 52 54 54 53 49 44 41 38 33 29 28 26 28 26 20 15 7 4 4 8 20 23 21 21 22 20 20 23 24 24 25 26 27 27 26 27 28 28 29 29 26 25 24 25 25 25 25 25 25 26 27 28 26 23 23 23 22 23 20 15 16 19 19 21 21 22 21 20 19 17 17 17 16 15 15
38 38 38 38 37 37 38 40 42 43 45 47 50 52 53 54 52 48 43 39 37 32 27 26 24 25 26 20 14 8 1 3 6 14 21 21 20 20 17 17 19 21 23 26 27 27 25 25 26 27 27 28 28 26 24 24 23 23 23 20 18 18 20 22 23 21 18 19 20 20 20 19 15 16 18 19 21 21 21 21 21 20 19 18 18 16 15 15
39 38 38 37 37 37 39 41 42 44 46 48 51 53 54 54 51 46 41 38 36 31 27 24 22 23 24 21 15 10 6 3 9 13 19 22 21 20 18 18 20 22 25 26 24 25 25 23 24 24 23 24 25 24 22 20 19 19 19 17 15 14 15 17 19 18 16 18 21 21 21 19 15 15 16 17 20 20 20 21 20 20 19 17 17 15 15 14
37 37 37 36 37 38 40 42 44 45 47 49 51 54 54 53 50 45 39 37 34 30 27 23 21 21 22 22 16 11 8 3 11 15 18 22 23 21 19 19 22 25 26 23 20 21 21 20 20 22 23 23 22 20 18 19 19 19 17 15 15 14 13 14 17 19 17 17 20 21 21 18 15 14 14 13 15 16 18 19 18 17 17 16 15 14 14 14
35 35 36 37 38 40 41 43 45 46 48 50 53 54 54 53 49 43 38 37 34 28 26 23 20 19 20 21 17 11 9 5 10 17 19 21 23 23 18 19 24 27 26 21 17 18 18 17 18 19 21 22 20 18 15 17 21 21 18 16 16 15 14 15 15 16 16 16 18 19 19 19 16 14 15 14 14 15 16 17 17 17 16 15 15 15 15 15
35 35 36 38 40 41 43 45 46 48 49 52 54 55 54 52 47 40 36 36 33 27 24 23 20 18 18 19 17 12 10 7 7 15 22 22 23 23 18 20 26 27 24 19 19 21 19 19 18 16 19 21 20 19 17 16 19 22 21 18 16 16 15 15 15 14 14 15 17 17 16 18 18 17 17 19 20 19 17 17 17 17 16 15 15 15 16 15
36 37 38 40 41 42 44 45 47 50 53 55 55 55 54 51 44 38 36 36 33 26 23 22 20 17 16 18 17 13 10 9 8 12 21 23 23 23 19 21 27 26 21 18 22 25 22 20 19 17 19 20 18 19 19 17 17 20 24 21 18 18 17 15 14 14 15 15 16 16 15 16 18 17 18 19 20 19 17 17 17 16 16 16 16 16 16 16
38 38 40 41 42 43 45 47 50 54 56 57 56 55 53 48 41 36 36 36 32 26 22 21 19 17 15 16 16 13 10 11 11 11 19 23 23 23 21 23 28 26 20 20 25 27 23 23 23 20 21 20 16 16 18 18 16 18 23 23 20 18 16 16 16 15 14 14 14 16 17 17 18 18 18 18 17 17 16 17 18 17 16 16 16 16 17 17
40 41 42 43 44 45 47 50 54 56 58 58 56 54 50 43 38 36 36 36 32 25 22 20 19 16 14 14 15 14 11 12 14 12 16 21 23 25 24 26 29 26 22 22 25 26 23 24 25 23 23 21 17 16 18 18 17 17 22 23 21 18 15 15 15 14 13 14 14 16 17 18 19 19 19 18 17 17 17 17 18 17 16 17 17 18 18 18
42 43 44 45 47 49 51 54 56 58 59 58 55 51 45 39 36 36 36 35 30 25 21 19 18 16 13 13 14 14 12 12 15 15 15 17 22 27 28 28 30 30 26 23 23 26 23 23 25 25 26 23 18 17 19 20 18 17 20 24 24 20 16 15 15 15 14 15 16 16 17 18 19 19 19 19 18 18 17 17 17 17 17 18 18 18 17 16
45 45 47 48 50 52 55 57 59 60 59 57 52 46 40 36 36 37 37 34 28 24 21 19 17 16 14 12 13 13 12 11 15 17 18 16 20 27 31 30 29 29 28 24 23 25 25 24 24 25 26 25 21 18 18 21 22 19 19 23 25 23 20 17 17 16 15 14 13 14 15 17 18 18 19 19 19 19 19 19 19 18 18 18 18 17 16 16
47 48 50 51 54 56 58 59 61 60 57 52 47 42 37 36 37 38 36 31 26 23 22 20 17 15 14 13 12 13 12 11 14 18 20 19 20 26 31 30 27 25 26 27 27 26 25 27 26 24 24 26 24 19 15 19 23 23 22 22 24 24 21 17 17 17 17 16 15 14 15 16 17 17 18 19 19 19 19 20 20 20 19 18 18 18 18 19
50 52 53 55 57 58 60 62 62 58 51 46 43 39 36 37 38 38 34 28 24 23 21 20 18 16 14 13 13 12 12 12 14 19 22 22 22 25 29 30 27 25 26 28 29 27 26 27 28 25 23 25 27 25 20 19 20 23 25 24 24 24 22 20 19 19 19 19 19 19 19 19 19 19 20 19 19 19 19 20 20 20 21 21 21 21 22 22
54 55 57 58 59 60 62 62 58 52 46 42 40 39 38 39 39 36 31 26 23 22 21 20 19 17 15 14 13 13 13 13 15 18 21 23 24 25 27 27 25 25 25 27 28 26 25 25 26 26 25 26 29 31 29 25 21 20 24 26 25 24 22 20 20 20 21 21 22 23 22 23 23 22 22 21 20 20 20 21 22 22 23 24 24 25 26 26
56 58 59 60 61 62 62 58 51 45 42 40 41 42 42 40 37 33 28 25 23 22 21 21 20 18 16 15 14 14 13 14 15 18 21 22 23 25 25 25 24 24 24 26 26 25 24 24 23 25 28 29 30 33 33 30 25 21 22 24 25 23 21 20 19 19 19 20 22 24 24 25 25 25 24 23 23 23 23 23 24 25 26 27 28 28 28 28
59 59 61 62 62 61 57 50 45 42 41 42 43 44 42 39 34 30 27 24 22 22 21 21 21 19 18 17 15 15 14 14 16 18 21 22 23 23 24 24 24 23 24 25 26 26 26 25 23 23 26 30 30 32 33 32 29 24 22 24 25 24 23 23 22 22 21 21 22 25 25 26 26 27 27 27 27 27 27 28 29 29 30 31 31 30 29 28
60 61 62 62 59 54 48 44 42 43 44 45 45 42 39 36 32 28 26 24 22 22 22 22 21 21 20 18 16 16 15 15 16 18 22 23 24 24 23 23 24 24 25 25 26 26 27 27 26 24 25 27 29 31 32 32 31 28 26 25 26 26 26 25 25 25 25 26 26 27 27 28 28 29 29 29 30 30 31 32 32 33 33 32 31 29 28 27
60 60 60 57 52 47 43 43 44 45 46 45 42 39 36 34 31 28 25 24 23 22 22 22 22 23 21 19 18 17 17 17 17 19 22 25 25 25 25 25 25 26 27 27 26 26 27 27 27 27 26 27 28 30 31 31 31 31 29 28 28 28 27 27 26 26 26 27 28 28 29 29 30 30 30 31 31 32 32 33 33 33 32 31 29 28 26 25
58 57 54 49 45 44 44 46 46 45 43 40 38 36 34 33 31 28 25 24 23 23 23 23 23 23 23 21 20 19 19 19 18 19 22 26 27 27 28 28 27 27 29 30 29 27 27 27 27 27 27 27 28 29 30 31 31 31 30 29 28 27 27 26 26 27 27 28 28 29 30 30 30 31 31 31 31 31 31 31 31 31 30 29 27 26 24 23
53 50 47 45 44 46 47 46 43 40 38 37 36 34 33 32 31 28 26 24 23 23 23 24 24 24 24 23 22 21 20 20 20 19 22 26 29 30 30 30 29 28 30 32 32 30 28 28 27 26 26 26 27 27 27 27 28 28 27 27 26 26 26 27 27 28 28 29 30 30 30 30 30 30 29 28 27 27 27 28 29 29 28 27 27 25 24 22
Wind_Direction
311 315 319 322 324 324 324 324 325 326 327 328 328 329 330 331 331 330 329 328 327 326 326 326 325 324 322 319 316 312 308 304 299 295 291 287 284 281 277 275 273 269 266 264 263 262 259 256 252 249 246 245 244 243 243 242 241 240 239 239 238 238 237 237 237 237 237 237 237 238 238 238 239 239 240 240 242 243 244 245 246 246 248 250 251 252 253 254
312 316 320 321 323 324 324 324 326 327 329 329 330 331 333 333 333 332 331 330 330 330 330 330 330 329 327 323 320 317 313 308 304 300 297 293 289 285 282 278 274 269 264 261 261 260 258 256 252 249 245 243 241 241 241 240 239 238 237 236 235 235 235 235 235 235 235 235 235 236 237 237 238 238 239 240 241 242 243 243 243 244 247 251 251 251 251 253
312 316 320 321 323 324 324 325 327 329 330 331 332 334 335 335 335 335 334 333 333 333 334 334 334 333 331 328 325 321 318 315 312 309 306 302 297 292 287 281 275 269 263 259 258 258 257 255 251 248 244 242 240 239 238 238 237 236 235 234 233 232 232 233 233 234 234 234 234 235 236 236 237 238 238 238 240 242 243 244 244 245 248 251 251 251 252 253
313 317 320 322 324 324 325 327 329 331 332 333 335 336 337 338 338 337 337 336 336 337 338 338 337 336 334 332 329 327 326 325 323 321 318 314 308 302 294 286 279 271 264 259 257 256 256 254 250 246 243 240 238 236 235 235 234 233 232 230 230 230 230 230 231 231 231 231 232 232 233 234 235 236 237 236 238 241 243 244 245 245 246 247 250 252 254 255
313 318 321 323 325 326 327 329 331 332 334 335 336 338 339 340 340 340 339 338 339 340 341 341 341 340 339 337 335 335 336 336 334 333 330 326 321 315 307 298 288 278 269 261 256 255 254 252 248 244 241 238 235 233 232 231 230 229 228 227 227 228 228 228 228 228 229 230 230 229 231 233 234 235 235 234 235 238 240 240 239 237 239 242 247 251 253 255
312 317 321 324 326 327 328 330 332 333 335 337 338 340 341 342 342 342 341 341 341 343 343 343 344 343 342 341 341 343 344 344 342 340 337 334 330 326 319 311 301 289 276 266 257 252 250 249 246 242 238 235 232 229 227 227 226 225 225 225 225 225 225 226 226 226 226 227 226 225 227 229 231 233 234 233 232 235 238 240 239 236 236 238 243 248 251 254
311 316 320 324 326 327 329 331 333 335 337 338 340 342 343 344 344 344 343 343 344 345 345 346 347 346 345 346 348 348 348 347 346 344 341 339 336 332 328 321 313 302 285 270 257 248 245 245 243 239 235 233 230 227 224 223 222 222 223 222 222 223 223 223 223 222 223 224 223 223 226 227 229 231 231 231 231 232 235 239 243 242 239 240 242 246 250 252
309 314 319 323 326 327 329 331 334 336 338 340 342 343 345 345 345 345 345 345 345 346 347 348 349 349 349 351 351 349 348 348 347 346 344 342 339 337 336 332 327 318 297 276 257 244 239 238 237 233 230 229 227 225 222 220 219 220 220 221 221 220 220 220 220 219 220 222 222 223 226 227 228 231 231 230 230 231 230 232 239 242 240 240 242 246 251 252
308 312 318 323 325 327 329 332 334 336 339 341 343 345 346 347 346 346 346 346 346 348 348 350 351 351 352 353 352 349 348 347 348 349 348 346 345 344 345 344 341 336 317 284 258 239 229 227 227 224 222 222 221 219 218 216 216 216 216 217 217 216 215 216 216 216 217 219 220 220 223 223 223 229 235 233 231 233 230 228 233 238 236 235 238 245 253 254
306 311 316 321 325 327 329 332 335 337 339 342 344 346 347 348 347 347 347 347 347 349 350 351 353 354 355 354 352 350 348 349 351 354 355 356 355 354 357 359 358 357 349 294 244 221 211 206 206 206 207 208 208 209 209 207 208 209 210 211 212 212 210 208 207 211 213 215 215 216 218 217 212 216 227 230 228 231 230 227 232 237 238 235 239 248 255 256
304 309 315 320 323 326 329 332 335 337 340 342 345 347 348 349 348 347 348 348 348 350 352 352 354 357 356 353 352 351 351 351 355 1 4 8 10 9 10 15 18 21 24 36 161 169 172 172 176 180 182 185 188 191 193 196 198 199 201 202 204 205 201 196 198 205 209 209 211 211 210 206 203 204 209 215 216 223 226 224 228 235 236 236 242 251 254 253
303 307 313 318 322 325 328 332 335 337 340 343 345 348 349 349 348 348 348 349 349 351 353 353 356 359 356 353 354 354 354 354 0 9 13 21 29 29 29 32 37 40 44 62 96 123 137 138 143 152 158 160 162 168 175 181 185 188 191 194 196 194 189 183 182 194 205 206 206 207 204 199 197 198 198 202 206 213 218 214 215 223 228 231 238 246 247 247
302 307 312 317 320 323 327 331 335 337 340 343 346 348 349 350 348 348 349 349 350 352 354 355 358 358 355 354 356 357 358 358 5 13 20 34 43 48 49 49 50 52 53 63 82 102 119 125 130 138 145 149 152 155 161 169 172 174 178 184 185 180 178 177 175 181 191 198 200 197 196 191 188 192 194 198 204 208 208 205 204 211 218 223 232 240 243 245
302 306 311 316 319 322 326 330 334 337 340 343 346 348 350 350 349 349 350 350 351 353 355 356 358 358 356 356 358 1 4 3 7 16 28 45 54 60 63 63 62 62 62 67 79 94 108 117 125 131 138 144 147 146 150 158 159 160 164 169 168 162 164 167 165 165 166 177 189 185 183 181 180 185 190 195 202 207 205 201 201 207 213 217 227 237 241 245
303 306 310 315 318 321 325 329 333 336 339 342 346 348 350 350 349 349 350 350 351 354 356 358 358 358 357 358 360 6 10 7 10 20 36 55 64 68 70 71 72 71 71 74 81 92 102 109 116 125 130 134 137 137 140 145 144 146 148 149 151 149 150 152 151 153 157 165 175 173 173 174 174 176 182 188 195 204 205 201 200 204 210 215 225 234 238 244
304 307 310 314 317 320 324 328 332 336 339 342 345 348 350 351 349 349 350 351 352 355 357 358 359 359 358 359 2 10 15 11 13 24 44 63 72 75 75 75 76 77 79 83 89 95 101 106 113 121 124 125 127 129 131 131 126 128 131 132 138 143 142 143 146 151 154 156 159 165 171 172 171 174 182 188 191 198 199 197 197 199 206 218 228 234 237 241
305 307 309 313 316 320 323 327 331 335 338 342 345 347 350 351 349 349 350 351 353 355 357 359 360 359 358 1 6 14 19 13 14 29 51 69 78 81 82 79 78 80 84 89 95 100 103 108 113 117 120 120 120 122 121 119 117 121 127 130 134 137 139 142 146 151 153 154 156 163 172 174 173 178 187 191 190 191 192 195 197 197 204 220 231 236 238 242
306 308 309 312 316 319 322 326 330 334 337 341 345 347 350 351 350 349 351 352 353 356 358 359 360 360 360 4 10 18 23 18 18 36 55 73 82 85 86 84 81 81 83 88 93 99 102 108 111 111 112 114 114 115 115 115 118 123 127 128 132 135 138 143 144 148 152 154 159 163 169 175 177 182 191 193 189 188 190 194 197 196 207 224 233 237 241 246
306 307 309 311 315 318 321 325 329 333 337 340 344 347 350 351 350 349 350 352 354 356 358 360 0 0 1 5 10 19 27 25 19 32 56 75 85 88 89 87 85 83 83 84 88 93 98 103 107 106 107 108 109 111 113 115 118 124 127 128 131 133 136 142 141 143 145 147 157 163 164 170 176 181 189 189 186 187 191 195 199 201 211 228 236 240 246 249
304 307 308 310 313 317 320 324 328 332 336 340 343 346 349 351 350 349 350 352 354 357 358 360 1 0 1 5 10 19 30 31 22 23 49 78 88 92 93 92 90 88 86 86 87 90 94 98 102 104 106 107 108 109 111 115 119 123 125 125 125 128 134 140 141 141 142 145 153 158 159 163 169 179 187 187 186 188 193 198 206 212 222 233 239 243 247 251
303 305 306 308 312 316 319 322 326 331 335 339 342 345 348 350 350 349 350 352 354 357 358 359 0 1 2 4 9 19 31 36 32 27 39 74 92 96 97 97 95 93 90 89 89 91 94 96 99 102 104 105 107 109 112 116 120 122 121 120 121 125 130 132 134 136 138 142 147 150 153 160 171 182 188 191 192 194 198 205 214 221 228 233 235 238 242 245
302 304 305 307 310 315 318 321 325 330 334 338 341 344 347 350 350 349 350 351 353 356 358 359 359 360 2 3 9 22 33 39 42 42 46 69 93 100 102 102 100 98 93 91 92 94 95 97 99 101 103 105 107 109 112 115 118 118 118 120 123 126 127 128 131 135 138 141 145 150 156 163 175 182 184 193 203 207 208 212 220 225 226 225 226 230 233 236
301 303 305 306 309 314 316 320 324 328 332 336 340 343 346 349 350 349 349 350 352 355 357 358 358 359 1 3 11 28 40 44 49 55 63 74 83 92 97 100 100 99 97 96 96 95 96 99 101 103 105 106 107 108 110 112 114 116 119 121 124 127 129 131 135 137 140 143 146 150 157 163 170 178 185 195 204 211 214 218 224 225 223 223 225 230 235 239
300 301 303 305 308 312 315 318 322 326 331 335 338 342 344 347 349 349 348 349 351 353 356 357 357 358 0 5 15 32 46 53 55 61 73 81 82 84 87 90 92 96 99 101 100 99 99 101 103 105 105 105 107 108 109 110 113 116 120 123 125 127 129 131 134 136 139 142 144 148 153 157 167 181 191 197 202 208 214 220 225 223 223 226 230 235 239 242
299 300 301 303 306 311 314 317 320 325 329 333 337 340 343 345 348 348 348 348 350 352 355 356 356 356 359 8 15 26 48 60 62 67 77 84 86 88 89 89 89 92 97 100 100 101 101 102 104 105 105 105 107 109 109 111 114 119 126 130 131 132 134 135 135 136 139 143 147 150 152 158 172 186 192 197 202 207 211 216 219 220 224 229 233 238 241 245
298 299 300 301 305 309 312 315 319 323 327 331 335 338 341 344 346 348 347 346 348 351 354 355 355 355 359 6 10 18 40 62 70 73 79 84 85 88 90 92 93 96 100 102 101 102 103 104 104 104 105 106 107 109 111 115 120 127 133 136 137 139 140 141 139 138 140 145 151 153 155 166 177 183 186 192 197 202 208 213 216 220 226 231 236 240 245 251
298 299 300 301 304 308 311 313 317 321 325 329 333 336 339 342 344 346 346 345 347 349 352 354 354 354 355 356 5 14 23 52 76 80 81 84 84 85 87 89 94 99 103 106 107 107 107 107 107 106 106 107 109 111 113 119 126 133 136 137 140 141 142 142 139 139 141 144 152 153 154 170 183 188 189 189 193 199 206 211 216 222 228 234 238 240 243 246
297 298 299 302 305 308 310 312 315 319 323 328 332 334 337 340 342 344 345 345 345 347 350 353 353 353 350 346 358 12 15 43 84 88 85 85 84 85 85 86 89 93 98 104 107 107 107 107 108 107 107 109 112 115 121 128 134 138 138 139 142 142 144 142 138 144 146 148 158 162 160 169 183 194 197 194 197 204 208 210 215 221 227 230 233 234 235 235
296 297 298 301 305 307 309 310 314 317 322 326 330 333 335 337 340 342 343 344 344 346 348 350 351 351 347 340 347 6 15 46 91 94 91 89 87 85 83 83 84 85 91 96 98 99 100 102 104 106 109 112 113 116 123 129 134 135 136 140 144 145 146 144 145 153 153 157 170 172 169 173 182 191 195 198 203 208 210 211 211 212 217 219 221 224 224 222
294 296 298 301 304 306 307 309 312 316 321 325 328 331 332 335 338 339 341 343 342 343 345 347 350 350 347 340 338 359 19 67 98 97 96 94 90 87 83 83 83 83 86 90 92 95 96 95 97 101 104 106 107 111 118 123 125 126 128 133 140 145 145 143 147 153 153 162 176 178 176 179 187 191 191 193 198 205 205 204 204 204 205 208 212 215 214 216
293 296 298 301 302 304 305 307 311 315 319 323 326 329 330 332 335 336 338 341 340 340 342 346 349 349 348 341 336 355 39 96 104 100 97 96 95 92 90 90 90 87 87 88 89 93 95 96 97 101 104 106 107 112 119 123 123 127 128 129 134 141 143 143 148 152 157 168 176 181 182 182 188 191 188 186 193 201 202 200 199 200 200 203 208 211 213 218
292 295 298 300 301 302 303 306 310 315 318 321 323 326 328 330 332 333 335 338 338 338 340 343 346 348 347 342 336 355 73 106 108 106 102 99 101 100 102 106 105 103 102 100 100 103 105 107 108 112 115 116 117 119 124 126 126 130 132 133 136 140 142 148 152 156 163 172 176 179 180 182 187 190 187 186 193 197 197 197 196 196 198 201 207 212 217 223
292 294 297 299 300 300 302 305 309 313 316 318 321 324 325 328 330 331 332 336 336 335 337 339 342 346 346 343 335 344 99 119 120 116 109 105 106 104 105 113 115 113 113 115 117 117 116 116 118 121 123 123 125 128 131 131 131 133 134 136 140 144 147 152 157 159 162 171 175 174 175 178 182 187 189 190 194 194 194 194 193 194 197 202 209 217 223 229
291 293 295 297 298 299 302 306 309 312 314 316 319 321 323 325 327 327 329 333 334 332 333 336 338 343 344 342 332 316 242 191 176 136 121 118 118 111 111 121 122 119 118 119 120 119 119 120 121 125 127 126 129 132 133 135 134 134 133 132 134 141 150 154 156 158 160 167 170 170 174 176 178 188 193 197 197 196 195 195 196 200 204 209 214 220 225 231
289 292 294 295 297 299 303 306 308 310 312 314 317 319 320 323 324 324 326 330 331 328 328 332 334 339 341 341 333 310 289 207 188 167 139 135 134 124 123 132 131 127 125 122 121 122 125 126 125 129 134 132 132 135 135 135 136 134 131 130 131 136 146 153 155 158 163 170 172 174 177 176 181 191 196 205 208 205 204 203 204 209 211 215 218 221 226 233
289 291 293 295 297 300 303 305 307 308 310 312 315 317 318 320 322 321 322 327 329 324 323 327 330 335 338 338 333 311 295 228 187 184 160 150 148 138 134 143 141 133 130 127 126 127 130 134 134 136 141 141 139 138 138 139 140 137 135 141 148 149 155 159 164 169 172 177 179 180 180 177 180 186 189 204 213 214 216 213 211 214 217 221 225 228 235 243
289 292 294 295 297 300 302 304 305 306 309 311 313 314 316 318 319 318 318 324 326 320 318 321 324 329 334 336 332 311 290 261 197 190 178 167 160 150 144 155 153 141 135 135 139 144 142 140 141 140 144 149 146 138 136 144 147 143 143 152 157 160 165 163 168 181 187 187 182 180 183 184 184 184 187 199 208 215 221 221 221 224 228 234 239 243 248 254
289 292 294 295 296 299 301 302 303 305 307 310 311 312 313 315 316 314 315 321 322 316 313 315 318 324 329 333 332 312 283 265 221 194 186 180 173 164 155 162 162 150 143 143 148 157 157 146 145 149 153 157 153 147 147 153 154 149 146 151 161 171 179 171 165 176 188 190 185 181 188 192 191 192 198 208 213 215 221 228 232 236 240 246 250 253 258 261
289 292 294 295 297 299 301 302 303 304 306 308 309 310 311 313 312 311 312 318 318 311 307 309 312 318 324 329 330 316 283 252 235 202 188 187 186 177 167 168 169 163 160 160 154 160 167 160 156 162 165 162 160 162 164 160 163 162 152 150 163 178 190 195 189 184 186 192 191 189 193 199 200 201 207 216 220 220 224 231 238 244 246 250 254 258 262 265
289 292 294 295 297 298 300 302 303 304 306 306 307 308 309 309 308 308 310 315 314 306 301 303 306 311 317 324 327 319 289 247 238 217 191 190 195 192 182 176 175 174 175 172 162 163 172 173 168 166 169 168 166 178 178 165 168 178 168 159 162 171 179 193 201 200 196 202 205 200 202 208 209 211 214 220 225 226 229 233 240 246 249 253 257 261 265 269
289 292 294 295 297 298 301 303 304 305 305 305 305 306 307 305 304 306 309 312 310 300 295 297 299 304 309 317 321 318 297 253 238 230 201 192 198 200 193 183 182 185 185 178 172 171 176 181 177 170 171 171 170 183 189 176 169 177 182 179 175 176 178 183 193 201 203 208 211 207 208 213 215 218 221 226 230 234 236 239 244 250 255 260 264 267 270 272
290 292 293 294 297 299 302 304 305 305 305 303 303 304 303 301 302 305 307 309 304 293 289 291 293 297 301 308 315 314 302 261 238 232 218 202 196 198 198 192 189 191 189 186 185 184 184 187 183 177 178 177 174 181 192 196 188 177 181 190 191 192 196 199 200 202 204 207 210 213 216 220 224 227 229 233 236 239 242 245 250 256 260 264 267 269 270 271
289 291 292 294 297 300 303 304 305 305 303 301 301 301 299 298 300 304 305 304 297 286 284 285 286 290 293 299 307 309 301 269 241 231 226 217 201 198 202 200 196 196 197 197 197 195 193 193 190 188 188 185 182 184 192 204 210 201 188 188 194 198 203 209 208 205 206 206 209 216 222 227 232 236 237 240 243 245 249 252 255 259 261 264 266 267 269 274
288 290 292 295 298 301 303 304 305 304 301 298 297 296 295 297 300 302 302 298 290 281 279 280 280 282 285 291 297 301 297 272 244 231 226 223 210 202 203 205 205 208 210 209 208 208 205 201 200 203 204 199 195 198 204 208 212 217 211 197 195 200 204 211 214 215 216 219 222 227 230 231 236 242 245 248 250 252 255 257 259 260 261 261 264 268 274 279
288 291 294 297 300 301 303 304 304 302 298 295 294 293 295 298 300 299 297 291 281 276 275 275 275 274 277 283 288 290 290 270 245 233 227 224 218 210 209 213 217 220 219 215 214 217 216 210 208 211 214 211 206 208 216 219 214 218 220 214 207 208 212 218 225 228 227 229 235 239 241 240 243 249 253 254 256 258 258 259 260 261 263 264 268 274 279 283
290 293 296 298 300 301 303 303 301 297 293 291 292 294 296 298 298 295 291 283 274 271 272 271 271 270 270 275 280 281 283 273 250 236 230 226 221 219 219 220 221 220 218 217 217 219 220 217 216 217 217 216 215 214 219 225 224 218 218 220 219 219 222 228 235 240 239 240 244 247 250 250 251 255 258 260 262 263 263 263 264 266 269 271 274 278 281 283
291 294 297 298 300 301 301 299 295 291 290 291 294 296 297 296 294 289 283 275 267 266 269 268 267 267 266 268 273 275 277 275 258 241 233 228 223 222 224 223 219 216 217 219 219 219 220 220 219 220 219 219 220 221 222 227 229 224 218 219 223 226 229 231 235 239 242 244 248 250 254 256 258 260 262 264 266 266 266 268 269 272 275 277 279 280 281 282
292 294 296 298 298 298 296 293 290 289 291 293 295 296 295 292 289 283 276 268 261 261 264 266 265 264 264 264 268 271 272 272 263 246 236 230 224 221 223 225 222 217 218 221 222 220 220 222 222 220 220 221 222 223 225 228 231 232 228 225 227 230 233 234 236 238 241 244 249 253 257 259 262 265 266 268 269 270 270 271 273 276 278 279 279 280 279 278
292 294 295 296 295 293 291 289 289 291 294 294 294 293 290 288 284 279 272 261 256 257 259 262 264 263 263 262 263 267 267 266 262 249 237 230 224 220 219 221 221 217 217 221 223 221 221 223 223 222 223 224 225 226 227 230 233 236 236 235 236 239 243 246 249 250 251 252 255 258 261 263 266 269 271 273 274 275 276 277 277 278 278 278 277 276 276 275
292 293 293 292 290 288 288 289 291 293 294 293 291 289 286 284 280 276 267 257 253 255 256 258 261 262 263 262 260 262 263 262 259 250 238 229 224 220 218 220 220 215 214 218 220 220 219 219 220 222 225 227 228 230 232 234 237 240 242 244 246 249 253 256 257 257 258 259 261 264 266 269 271 273 274 276 278 279 279 278 278 277 277 276 275 273 273 273
290 290 288 287 287 288 290 292 293 293 291 289 287 286 283 280 278 273 265 254 250 252 255 257 259 261 263 262 260 260 262 261 258 251 241 231 224 218 217 220 220 216 214 215 217 217 216 216 216 217 220 224 227 229 232 235 238 243 246 248 251 253 255 257 259 261 263 266 268 271 273 274 274 275 276 277 277 277 276 276 275 275 274 273 272 271 270 271
287 286 286 287 289 291 292 292 292 290 288 287 285 283 280 277 274 270 263 254 248 249 254 256 259 261 262 262 260 259 260 261 259 253 243 233 226 219 216 218 221 219 216 217 218 219 218 218 217 216 217 222 225 226 228 232 235 240 244 248 250 253 256 259 263 265 268 271 273 274 275 275 275 276 277 276 275 276 276 276 275 272 270 269 267 267 267 269
Height
10792 10791 10790 10788 10786 10784 10781 10778 10775 10771 10767 10762 10758 10753 10747 10741 10735 10727 10720 10712 10704 10695 10686 10677 10667 10655 10644 10633 10624 10616 10608 10600 10592 10584 10578 10572 10567 10563 10559 10556 10554 10552 10550 10547 10546 10547 10549 10552 10556 10560 10564 10568 10574 10579 10585 10593 10602 10610 10619 10631 10643 10651 10658 10662 10668 10677 10681 10689 10701 10705 10710 10717 10722 10729 10735 10742 10750 10754 10760 10766 10770 10774 10776 10779 10783 10786 10786 10786
10790 10789 10787 10785 10783 10781 10777 10774 10771 10767 10763 10758 10753 10748 10742 10735 10728 10721 10713 10704 10696 10687 10678 10668 10657 10646 10634 10623 10614 10606 10599 10590 10582 10575 10568 10563 10558 10553 10549 10546 10543 10541 10539 10536 10535 10536 10537 10541 10545 10549 10554 10559 10564 10570 10577 10584 10593 10602 10611 10623 10633 10639 10644 10648 10656 10665 10672 10682 10692 10697 10705 10711 10717 10723 10730 10740 10747 10750 10756 10761 10766 10771 10776 10778 10780 10781 10781 10782
10787 10786 10785 10783 10780 10778 10774 10771 10767 10763 10758 10754 10748 10743 10737 10730 10722 10714 10706 10697 10689 10680 10670 10659 10648 10637 10626 10615 10605 10597 10590 10582 10574 10567 10560 10554 10549 10544 10539 10536 10532 10530 10528 10526 10525 10525 10526 10530 10535 10539 10545 10550 10556 10563 10569 10577 10586 10594 10603 10614 10622 10626 10631 10639 10648 10657 10666 10676 10685 10694 10702 10706 10711 10716 10726 10738 10742 10745 10752 10759 10765 10774 10778 10775 10774 10775 10776 10777
10785 10784 10782 10780 10777 10775 10771 10767 10763 10759 10754 10749 10744 10738 10731 10724 10716 10708 10699 10690 10682 10673 10662 10652 10641 10630 10619 10608 10598 10590 10582 10574 10567 10559 10552 10546 10540 10535 10530 10526 10523 10519 10517 10516 10515 10516 10518 10521 10525 10530 10536 10541 10548 10555 10563 10571 10578 10586 10596 10604 10608 10615 10624 10631 10639 10647 10658 10668 10680 10692 10697 10699 10704 10711 10723 10734 10740 10745 10752 10758 10765 10772 10772 10767 10767 10770 10772 10773
10783 10781 10779 10777 10774 10771 10768 10764 10760 10755 10750 10745 10739 10733 10726 10719 10711 10702 10693 10684 10676 10666 10656 10645 10634 10623 10612 10602 10592 10582 10574 10567 10560 10553 10545 10539 10533 10528 10522 10518 10515 10511 10509 10508 10507 10508 10510 10513 10517 10522 10528 10533 10540 10548 10556 10564 10571 10580 10588 10593 10600 10608 10615 10622 10630 10642 10654 10664 10678 10688 10689 10693 10700 10709 10720 10730 10739 10744 10749 10753 10757 10761 10762 10762 10763 10766 10768 10769
10780 10779 10777 10774 10771 10768 10765 10761 10756 10751 10746 10741 10735 10729 10722 10714 10705 10696 10687 10678 10670 10660 10650 10639 10628 10617 10607 10597 10587 10577 10569 10561 10554 10547 10539 10533 10527 10521 10516 10511 10508 10505 10502 10500 10500 10501 10502 10505 10510 10515 10520 10527 10534 10541 10550 10557 10565 10573 10580 10588 10596 10602 10609 10618 10629 10641 10651 10660 10673 10679 10680 10687 10696 10706 10717 10727 10736 10742 10747 10750 10751 10755 10757 10759 10761 10762 10763 10765
10778 10776 10774 10771 10768 10765 10761 10757 10752 10747 10742 10737 10731 10725 10718 10710 10701 10692 10683 10674 10665 10655 10645 10635 10624 10613 10602 10592 10582 10572 10564 10557 10549 10542 10535 10529 10523 10517 10512 10507 10503 10500 10497 10494 10494 10495 10497 10499 10504 10509 10515 10521 10529 10537 10545 10553 10561 10569 10576 10584 10591 10598 10608 10617 10626 10637 10646 10653 10664 10671 10676 10685 10695 10706 10714 10723 10733 10741 10746 10748 10748 10751 10754 10756 10758 10758 10759 10761
10775 10774 10771 10768 10765 10762 10758 10754 10749 10744 10739 10733 10727 10721 10714 10706 10697 10688 10679 10670 10661 10652 10642 10631 10621 10610 10599 10589 10579 10570 10562 10555 10548 10540 10533 10526 10520 10515 10509 10504 10499 10497 10494 10491 10490 10490 10492 10495 10499 10505 10511 10518 10526 10535 10543 10551 10559 10567 10575 10583 10590 10599 10607 10614 10622 10633 10643 10651 10661 10669 10676 10686 10699 10709 10714 10722 10733 10738 10742 10744 10742 10745 10750 10754 10756 10756 10757 10759
10773 10771 10769 10766 10762 10759 10756 10751 10746 10741 10735 10730 10724 10717 10710 10702 10693 10685 10676 10667 10658 10649 10639 10629 10619 10608 10598 10588 10580 10571 10563 10556 10548 10541 10533 10526 10520 10513 10508 10502 10497 10494 10492 10490 10488 10487 10489 10492 10497 10502 10508 10516 10524 10533 10541 10550 10558 10567 10575 10583 10591 10598 10605 10613 10622 10631 10641 10650 10659 10667 10674 10687 10703 10713 10716 10724 10732 10734 10738 10741 10739 10741 10747 10751 10753 10755 10755 10756
10770 10769 10766 10763 10760 10756 10753 10749 10744 10738 10733 10727 10721 10714 10707 10699 10690 10682 10673 10665 10656 10647 10637 10627 10618 10608 10597 10589 10581 10573 10565 10557 10550 10542 10535 10528 10520 10514 10508 10502 10497 10494 10492 10491 10489 10488 10488 10491 10495 10500 10507 10514 10522 10531 10539 10549 10557 10566 10575 10582 10590 10598 10606 10614 10622 10631 10640 10648 10656 10665 10675 10689 10704 10711 10716 10723 10728 10729 10732 10736 10738 10740 10745 10749 10752 10753 10752 10753
10768 10766 10764 10761 10757 10754 10750 10746 10741 10736 10730 10724 10718 10712 10704 10696 10688 10679 10671 10663 10654 10646 10636 10626 10618 10609 10599 10590 10582 10574 10567 10560 10552 10545 10538 10531 10523 10516 10510 10504 10499 10495 10493 10491 10489 10489 10489 10491 10495 10500 10506 10513 10521 10530 10539 10548 10556 10565 10573 10581 10588 10598 10607 10617 10626 10634 10639 10645 10653 10661 10672 10686 10697 10704 10710 10716 10721 10723 10725 10731 10736 10739 10744 10748 10750 10750 10750 10750
10765 10764 10761 10758 10754 10751 10748 10744 10739 10733 10728 10722 10716 10709 10702 10694 10686 10678 10670 10662 10653 10645 10636 10626 10618 10609 10602 10593 10585 10577 10570 10563 10556 10549 10542 10535 10528 10521 10514 10508 10502 10498 10495 10493 10491 10490 10491 10493 10496 10501 10507 10513 10520 10528 10537 10545 10554 10562 10571 10579 10588 10598 10608 10618 10628 10635 10640 10645 10651 10659 10669 10681 10690 10698 10703 10707 10714 10718 10722 10727 10731 10736 10741 10746 10748 10747 10747 10747
10763 10761 10759 10756 10752 10749 10745 10741 10737 10731 10726 10720 10714 10708 10700 10693 10685 10677 10669 10661 10653 10645 10636 10627 10619 10611 10604 10596 10587 10580 10573 10566 10560 10553 10547 10539 10533 10526 10520 10513 10508 10503 10500 10497 10495 10494 10494 10496 10498 10502 10507 10512 10517 10525 10534 10542 10550 10558 10568 10578 10588 10597 10607 10617 10625 10632 10640 10646 10651 10658 10668 10677 10686 10694 10698 10702 10709 10715 10719 10724 10728 10734 10739 10742 10745 10744 10743 10744
10760 10758 10756 10753 10750 10746 10743 10739 10734 10729 10724 10719 10713 10706 10699 10691 10684 10676 10669 10661 10653 10645 10636 10627 10620 10613 10606 10598 10591 10584 10577 10570 10564 10558 10551 10545 10538 10532 10526 10520 10514 10510 10507 10504 10502 10501 10501 10502 10504 10506 10510 10515 10519 10525 10534 10544 10550 10557 10566 10577 10587 10597 10606 10615 10622 10629 10637 10644 10650 10656 10664 10673 10681 10689 10696 10701 10707 10713 10717 10723 10728 10732 10735 10738 10742 10740 10739 10741
10758 10756 10754 10751 10747 10744 10741 10737 10732 10727 10722 10717 10712 10705 10698 10691 10683 10676 10669 10661 10653 10646 10638 10629 10622 10615 10608 10601 10594 10587 10581 10576 10570 10564 10557 10550 10544 10538 10533 10527 10521 10518 10516 10513 10511 10510 10509 10509 10511 10513 10516 10521 10525 10530 10537 10545 10552 10560 10570 10580 10589 10598 10605 10613 10620 10627 10634 10641 10648 10655 10663 10673 10680 10687 10694 10700 10705 10711 10716 10722 10727 10729 10731 10736 10739 10737 10736 10737
10755 10753 10751 10749 10745 10742 10739 10735 10731 10726 10721 10716 10711 10705 10698 10691 10683 10675 10669 10662 10654 10647 10640 10632 10625 10618 10611 10605 10597 10590 10586 10581 10575 10569 10563 10556 10550 10545 10540 10535 10529 10527 10525 10522 10520 10518 10517 10518 10520 10520 10522 10526 10532 10536 10540 10546 10553 10563 10575 10583 10592 10599 10606 10614 10621 10627 10633 10640 10648 10657 10666 10674 10682 10689 10694 10698 10702 10707 10714 10720 10724 10725 10729 10735 10736 10733 10733 10734
10753 10750 10748 10746 10743 10740 10737 10734 10730 10725 10720 10715 10709 10704 10698 10690 10683 10676 10669 10662 10655 10648 10641 10634 10627 10621 10615 10607 10600 10594 10590 10586 10581 10575 10568 10562 10556 10551 10547 10542 10538 10536 10534 10532 10529 10527 10525 10527 10528 10528 10529 10532 10537 10541 10544 10550 10557 10567 10578 10587 10595 10602 10608 10615 10622 10629 10636 10641 10649 10659 10668 10675 10683 10690 10694 10696 10699 10706 10712 10717 10719 10721 10726 10732 10731 10730 10731 10732
10750 10748 10745 10743 10740 10737 10735 10732 10728 10724 10719 10714 10709 10703 10697 10690 10683 10676 10670 10663 10656 10650 10643 10636 10630 10624 10617 10611 10604 10599 10595 10592 10587 10581 10574 10568 10562 10558 10553 10549 10545 10544 10543 10541 10538 10536 10534 10535 10535 10536 10538 10539 10543 10546 10549 10555 10562 10572 10582 10590 10598 10604 10610 10618 10623 10630 10637 10642 10650 10659 10667 10675 10682 10689 10693 10695 10699 10705 10709 10713 10717 10719 10725 10728 10727 10727 10729 10729
10748 10746 10743 10741 10738 10735 10733 10730 10726 10722 10718 10713 10709 10704 10697 10690 10683 10676 10671 10665 10659 10652 10645 10639 10633 10627 10621 10616 10610 10604 10600 10597 10593 10587 10580 10574 10568 10564 10560 10556 10553 10552 10550 10549 10548 10546 10544 10543 10542 10543 10546 10547 10550 10553 10556 10564 10571 10579 10587 10594 10602 10607 10613 10622 10627 10631 10638 10644 10652 10660 10668 10676 10683 10688 10692 10695 10698 10702 10707 10712 10716 10719 10723 10725 10725 10726 10726 10727
10746 10743 10740 10738 10736 10733 10730 10728 10724 10721 10716 10712 10708 10704 10699 10692 10685 10678 10672 10666 10661 10655 10648 10643 10637 10632 10627 10621 10615 10609 10605 10602 10598 10593 10586 10579 10574 10569 10565 10562 10560 10559 10556 10555 10555 10555 10553 10552 10552 10552 10553 10553 10557 10561 10567 10575 10582 10589 10595 10600 10607 10612 10618 10625 10631 10636 10642 10648 10655 10663 10671 10678 10683 10688 10693 10696 10699 10703 10708 10713 10716 10718 10721 10721 10722 10723 10724 10726
10743 10741 10738 10736 10733 10730 10728 10725 10722 10719 10715 10711 10707 10703 10698 10693 10686 10679 10673 10667 10662 10657 10651 10646 10641 10637 10632 10626 10621 10615 10609 10605 10602 10598 10592 10585 10579 10575 10571 10567 10566 10565 10562 10562 10562 10562 10562 10562 10562 10562 10562 10562 10565 10572 10579 10585 10590 10597 10602 10607 10613 10619 10624 10629 10635 10640 10646 10652 10659 10665 10672 10678 10683 10687 10692 10699 10704 10707 10710 10713 10715 10716 10718 10719 10720 10721 10723 10726
10740 10738 10736 10733 10731 10728 10725 10723 10720 10717 10713 10710 10706 10702 10697 10692 10686 10679 10674 10668 10663 10659 10654 10649 10644 10640 10636 10631 10625 10619 10614 10609 10605 10602 10598 10592 10586 10581 10577 10574 10572 10570 10568 10569 10570 10569 10570 10571 10571 10571 10572 10574 10577 10583 10590 10594 10598 10603 10608 10613 10620 10626 10631 10635 10640 10644 10649 10655 10661 10665 10671 10677 10682 10687 10693 10700 10707 10710 10711 10713 10714 10715 10716 10717 10718 10720 10723 10725
10737 10736 10733 10731 10729 10726 10723 10720 10718 10715 10711 10708 10704 10701 10696 10692 10687 10680 10675 10670 10665 10661 10656 10651 10647 10643 10639 10635 10629 10624 10619 10615 10610 10606 10603 10600 10595 10591 10586 10582 10580 10577 10575 10577 10577 10577 10578 10578 10579 10580 10582 10586 10589 10593 10597 10600 10604 10610 10616 10622 10628 10632 10637 10640 10644 10648 10653 10659 10664 10668 10672 10677 10682 10688 10692 10698 10705 10709 10711 10712 10714 10714 10715 10716 10718 10720 10722 10723
10734 10733 10731 10729 10726 10724 10721 10718 10715 10713 10710 10706 10703 10700 10696 10692 10687 10682 10676 10671 10666 10662 10658 10654 10649 10646 10643 10639 10634 10629 10625 10621 10615 10611 10609 10606 10603 10600 10596 10593 10590 10587 10584 10584 10584 10585 10587 10587 10587 10588 10591 10595 10598 10601 10604 10608 10610 10616 10625 10631 10634 10637 10641 10645 10649 10653 10657 10663 10667 10672 10676 10681 10685 10689 10693 10697 10703 10707 10709 10711 10712 10713 10713 10715 10717 10719 10720 10722
10730 10729 10728 10726 10724 10722 10719 10716 10713 10711 10708 10705 10701 10698 10695 10691 10687 10682 10677 10672 10668 10664 10660 10656 10652 10648 10646 10642 10638 10634 10630 10626 10622 10618 10614 10612 10609 10605 10602 10600 10599 10597 10594 10593 10593 10593 10594 10595 10596 10597 10599 10603 10606 10608 10612 10615 10617 10623 10631 10636 10638 10641 10644 10648 10653 10658 10662 10666 10670 10674 10679 10684 10689 10692 10695 10699 10703 10706 10707 10708 10710 10711 10713 10715 10717 10718 10719 10721
10726 10726 10725 10723 10721 10720 10717 10714 10711 10709 10706 10703 10700 10697 10694 10691 10687 10683 10678 10673 10669 10665 10661 10658 10654 10650 10648 10645 10642 10639 10635 10632 10629 10625 10620 10618 10615 10613 10609 10607 10605 10604 10603 10602 10602 10602 10602 10603 10605 10606 10607 10611 10613 10616 10619 10622 10624 10630 10635 10638 10641 10644 10648 10651 10656 10661 10666 10670 10673 10677 10681 10686 10690 10693 10696 10699 10703 10705 10706 10707 10708 10710 10713 10715 10717 10717 10718 10720
10723 10722 10722 10720 10719 10717 10715 10712 10709 10707 10705 10702 10699 10696 10693 10690 10687 10683 10679 10674 10670 10666 10663 10659 10655 10652 10650 10647 10644 10642 10640 10636 10633 10630 10627 10624 10622 10620 10618 10615 10613 10612 10611 10611 10610 10609 10609 10610 10612 10613 10615 10618 10620 10623 10626 10628 10631 10636 10639 10642 10645 10648 10652 10656 10660 10665 10669 10674 10678 10681 10685 10689 10692 10694 10696 10698 10700 10702 10704 10706 10708 10710 10713 10714 10715 10716 10717 10718
10719 10719 10719 10717 10716 10714 10712 10710 10707 10705 10703 10701 10698 10694 10691 10689 10686 10683 10679 10675 10671 10667 10663 10660 10657 10653 10651 10649 10646 10645 10643 10640 10637 10634 10632 10630 10628 10626 10625 10623 10622 10621 10621 10620 10619 10618 10618 10618 10618 10619 10621 10624 10627 10629 10632 10634 10637 10640 10643 10645 10648 10651 10656 10660 10665 10670 10673 10678 10682 10685 10688 10691 10693 10694 10695 10697 10699 10701 10702 10704 10707 10709 10711 10712 10713 10715 10715 10716
10716 10715 10715 10714 10713 10711 10709 10707 10705 10703 10701 10699 10696 10693 10690 10687 10685 10682 10679 10676 10671 10668 10664 10661 10658 10655 10652 10650 10648 10647 10645 10642 10640 10638 10636 10635 10633 10632 10631 10629 10629 10628 10628 10628 10627 10626 10626 10625 10625 10626 10628 10631 10632 10635 10637 10640 10642 10645 10647 10649 10651 10654 10658 10663 10667 10672 10675 10679 10683 10685 10688 10690 10691 10692 10694 10697 10699 10701 10703 10704 10707 10708 10709 10710 10711 10712 10713 10714
10713 10712 10712 10711 10710 10708 10706 10704 10703 10701 10699 10696 10694 10691 10688 10685 10684 10681 10678 10675 10672 10668 10665 10661 10658 10655 10653 10651 10650 10649 10647 10645 10643 10641 10640 10639 10637 10636 10636 10635 10635 10634 10634 10633 10632 10632 10632 10632 10632 10634 10636 10638 10639 10641 10644 10646 10648 10650 10652 10655 10657 10659 10662 10665 10668 10672 10676 10680 10683 10685 10687 10689 10691 10692 10695 10698 10701 10702 10703 10704 10706 10707 10708 10709 10709 10711 10712 10713
10709 10708 10708 10708 10707 10705 10703 10701 10700 10698 10697 10694 10692 10690 10686 10684 10682 10680 10677 10675 10672 10669 10665 10662 10658 10656 10653 10651 10650 10650 10649 10647 10645 10644 10643 10642 10641 10640 10640 10640 10639 10639 10639 10638 10638 10638 10638 10638 10639 10640 10642 10644 10645 10647 10649 10650 10652 10654 10656 10658 10660 10663 10665 10668 10671 10674 10677 10679 10682 10685 10687 10689 10691 10693 10696 10699 10701 10702 10703 10704 10704 10705 10706 10707 10709 10710 10711 10711
10706 10705 10704 10704 10703 10702 10700 10698 10697 10696 10694 10692 10690 10688 10685 10682 10680 10678 10676 10673 10671 10668 10665 10662 10659 10656 10654 10652 10651 10651 10651 10649 10647 10646 10646 10645 10644 10643 10643 10642 10641 10641 10641 10642 10642 10643 10642 10642 10643 10644 10645 10646 10648 10650 10652 10654 10655 10656 10658 10659 10661 10664 10666 10669 10672 10674 10677 10679 10682 10685 10688 10690 10692 10693 10696 10698 10700 10700 10701 10703 10703 10704 10705 10707 10708 10709 10710 10710
10702 10701 10700 10700 10699 10698 10696 10695 10694 10693 10691 10689 10687 10685 10683 10680 10678 10676 10674 10671 10669 10667 10665 10662 10659 10656 10654 10652 10651 10651 10651 10651 10650 10648 10648 10648 10647 10647 10647 10646 10645 10644 10644 10644 10645 10646 10646 10647 10647 10647 10648 10649 10650 10652 10654 10656 10657 10659 10660 10662 10664 10666 10668 10670 10673 10676 10678 10681 10684 10687 10689 10691 10692 10693 10695 10697 10699 10699 10701 10701 10702 10703 10705 10706 10707 10707 10708 10708
10698 10697 10697 10696 10696 10695 10693 10692 10691 10690 10688 10686 10684 10683 10681 10678 10676 10674 10672 10670 10667 10665 10664 10661 10658 10656 10654 10652 10651 10651 10651 10651 10651 10650 10649 10649 10649 10649 10649 10649 10649 10648 10648 10648 10648 10649 10650 10651 10651 10651 10652 10652 10653 10655 10657 10658 10660 10661 10663 10665 10667 10669 10671 10674 10676 10679 10681 10683 10686 10688 10689 10690 10691 10693 10695 10697 10698 10699 10700 10701 10701 10702 10703 10704 10706 10706 10706 10707
10694 10693 10692 10692 10692 10691 10690 10688 10687 10686 10685 10683 10681 10680 10678 10676 10673 10671 10669 10668 10665 10663 10662 10660 10658 10655 10653 10651 10650 10650 10650 10650 10650 10650 10649 10649 10649 10650 10650 10651 10650 10650 10651 10651 10652 10652 10653 10654 10654 10654 10655 10655 10656 10658 10659 10661 10663 10664 10666 10668 10670 10672 10674 10676 10678 10680 10682 10683 10685 10687 10689 10690 10692 10693 10696 10697 10698 10699 10700 10700 10701 10702 10703 10704 10704 10705 10705 10705
10689 10689 10688 10688 10688 10687 10686 10684 10683 10683 10682 10680 10678 10676 10675 10673 10671 10668 10666 10665 10663 10660 10659 10658 10657 10654 10652 10650 10649 10648 10648 10649 10649 10650 10650 10649 10650 10650 10651 10652 10651 10651 10652 10653 10655 10655 10656 10656 10656 10656 10657 10658 10659 10660 10662 10663 10664 10666 10669 10670 10672 10674 10675 10677 10678 10680 10681 10682 10684 10687 10689 10691 10693 10695 10697 10698 10698 10699 10699 10700 10700 10701 10702 10702 10703 10703 10703 10703
10685 10685 10684 10684 10683 10683 10681 10680 10679 10678 10678 10677 10675 10673 10671 10670 10668 10666 10663 10662 10660 10658 10656 10655 10655 10653 10650 10649 10648 10647 10647 10647 10648 10649 10649 10649 10650 10650 10651 10652 10652 10652 10653 10654 10656 10656 10657 10657 10658 10658 10659 10660 10661 10662 10664 10665 10665 10667 10670 10671 10673 10675 10676 10677 10678 10679 10681 10682 10684 10686 10689 10691 10694 10695 10696 10697 10698 10699 10699 10699 10699 10700 10700 10700 10700 10701 10701 10701
10680 10680 10680 10680 10679 10678 10677 10676 10674 10674 10674 10673 10671 10669 10667 10666 10665 10663 10661 10659 10657 10656 10654 10652 10652 10651 10649 10648 10647 10646 10645 10646 10646 10647 10648 10649 10649 10650 10650 10651 10652 10653 10653 10654 10655 10656 10657 10658 10659 10660 10660 10661 10662 10663 10665 10666 10667 10668 10669 10672 10674 10675 10675 10677 10678 10679 10680 10682 10684 10686 10689 10691 10693 10694 10695 10696 10697 10698 10698 10699 10698 10698 10698 10698 10698 10698 10698 10698
10676 10676 10676 10675 10675 10674 10673 10672 10670 10670 10670 10669 10668 10665 10663 10662 10661 10659 10657 10655 10654 10653 10652 10650 10649 10649 10647 10646 10645 10644 10644 10644 10645 10646 10646 10648 10649 10650 10650 10651 10652 10652 10653 10653 10654 10656 10657 10658 10660 10660 10661 10662 10663 10664 10665 10667 10668 10668 10669 10671 10673 10674 10675 10676 10677 10678 10679 10681 10683 10686 10688 10689 10690 10691 10692 10693 10694 10695 10697 10697 10696 10695 10695 10695 10695 10695 10695 10695
10671 10671 10671 10671 10670 10669 10669 10668 10666 10665 10665 10664 10663 10662 10659 10658 10657 10656 10654 10652 10651 10650 10649 10648 10646 10646 10645 10644 10643 10643 10642 10642 10643 10644 10645 10647 10648 10649 10650 10650 10651 10652 10652 10653 10654 10655 10656 10658 10659 10660 10660 10662 10663 10664 10665 10666 10667 10668 10670 10671 10672 10673 10674 10675 10675 10676 10678 10680 10682 10684 10685 10686 10687 10688 10689 10690 10690 10692 10693 10694 10693 10692 10692 10692 10692 10692 10692 10692
10666 10666 10666 10666 10665 10665 10664 10663 10662 10660 10659 10659 10659 10658 10656 10654 10653 10652 10650 10648 10647 10646 10646 10645 10644 10643 10643 10642 10641 10641 10641 10640 10641 10642 10643 10645 10646 10647 10648 10649 10650 10651 10652 10653 10654 10654 10655 10657 10658 10659 10660 10661 10662 10663 10664 10665 10666 10667 10669 10670 10670 10671 10673 10674 10674 10675 10677 10678 10680 10681 10682 10683 10684 10685 10686 10686 10687 10688 10689 10690 10690 10689 10689 10688 10688 10688 10688 10688
10662 10661 10661 10661 10660 10660 10659 10659 10657 10655 10654 10653 10653 10653 10652 10650 10649 10647 10646 10644 10643 10642 10642 10642 10641 10641 10640 10640 10639 10639 10639 10639 10639 10640 10641 10642 10643 10644 10646 10647 10648 10649 10651 10652 10654 10654 10655 10656 10657 10658 10659 10660 10661 10662 10664 10664 10665 10666 10668 10669 10670 10671 10672 10673 10674 10674 10675 10677 10678 10679 10680 10681 10681 10682 10683 10683 10684 10685 10686 10686 10686 10686 10686 10685 10685 10685 10685 10685
10656 10656 10656 10655 10655 10655 10654 10653 10652 10650 10648 10647 10647 10648 10647 10645 10644 10643 10641 10640 10639 10639 10639 10638 10638 10638 10637 10637 10637 10637 10637 10637 10637 10638 10639 10640 10641 10642 10643 10645 10646 10648 10650 10651 10653 10653 10654 10656 10657 10658 10659 10659 10660 10661 10662 10663 10664 10665 10666 10667 10668 10670 10671 10671 10672 10673 10674 10675 10676 10677 10678 10679 10679 10680 10680 10681 10682 10682 10683 10683 10684 10683 10683 10683 10682 10682 10682 10682
10651 10651 10651 10650 10650 10649 10649 10648 10646 10644 10643 10641 10641 10642 10643 10641 10640 10638 10637 10636 10635 10635 10635 10635 10635 10635 10634 10634 10634 10634 10634 10634 10635 10636 10637 10638 10639 10640 10641 10642 10644 10646 10647 10649 10650 10651 10653 10654 10655 10657 10658 10659 10660 10661 10661 10662 10663 10663 10664 10665 10667 10668 10669 10669 10670 10671 10672 10673 10675 10675 10676 10677 10678 10678 10678 10679 10679 10680 10680 10681 10681 10681 10681 10680 10680 10680 10679 10679
10646 10646 10645 10645 10644 10644 10643 10642 10640 10639 10637 10636 10635 10636 10637 10636 10635 10634 10633 10632 10631 10631 10631 10631 10631 10631 10631 10631 10631 10631 10631 10632 10632 10633 10634 10636 10637 10638 10639 10640 10641 10643 10644 10645 10647 10648 10650 10652 10653 10655 10657 10658 10659 10660 10660 10660 10660 10661 10662 10663 10665 10666 10668 10669 10669 10670 10671 10672 10673 10673 10674 10675 10675 10675 10676 10676 10677 10677 10678 10678 10678 10678 10678 10678 10677 10677 10677 10676
10641 10640 10639 10639 10638 10638 10637 10636 10635 10633 10632 10631 10630 10630 10631 10631 10629 10628 10628 10628 10627 10627 10628 10628 10628 10628 10628 10628 10628 10628 10628 10629 10629 10630 10631 10632 10634 10636 10636 10637 10638 10639 10640 10642 10644 10645 10647 10649 10651 10652 10654 10655 10655 10656 10656 10657 10658 10659 10660 10661 10663 10665 10666 10668 10669 10669 10670 10671 10671 10671 10671 10672 10672 10673 10673 10673 10674 10674 10675 10675 10675 10675 10674 10674 10674 10674 10673 10673
10635 10634 10634 10633 10632 10632 10631 10630 10629 10628 10627 10626 10625 10624 10625 10625 10624 10623 10623 10623 10623 10623 10624 10624 10624 10624 10624 10624 10624 10625 10625 10626 10626 10627 10628 10629 10631 10633 10634 10635 10636 10637 10638 10639 10641 10643 10644 10646 10648 10649 10650 10651 10651 10652 10653 10654 10655 10656 10657 10659 10660 10662 10664 10666 10667 10667 10668 10669 10668 10668 10668 10668 10669 10669 10670 10670 10671 10671 10671 10671 10671 10671 10671 10670 10670 10670 10669 10669
10629 10628 10628 10627 10627 10626 10625 10625 10624 10623 10622 10621 10620 10619 10618 10618 10618 10618 10618 10619 10619 10620 10620 10620 10620 10620 10620 10620 10621 10621 10622 10622 10623 10624 10625 10626 10629 10631 10633 10634 10634 10635 10636 10637 10638 10640 10642 10643 10644 10646 10647 10648 10649 10649 10650 10651 10652 10653 10655 10656 10658 10660 10661 10663 10664 10664 10665 10666 10666 10665 10666 10665 10665 10665 10666 10666 10667 10667 10667 10667 10667 10667 10666 10666 10665 10665 10665 10664
10623 10623 10622 10622 10621 10621 10620 10619 10618 10617 10616 10615 10614 10613 10612 10612 10613 10613 10614 10614 10615 10615 10616 10616 10616 10616 10616 10617 10617 10618 10618 10619 10620 10620 10622 10623 10625 10628 10630 10632 10632 10633 10634 10635 10636 10637 10639 10640 10641 10643 10644 10645 10646 10647 10648 10649 10650 10651 10652 10654 10655 10657 10658 10659 10660 10661 10662 10663 10663 10663 10663 10662 10662 10662 10662 10662 10663 10663 10663 10662 10662 10662 10661 10661 10660 10660 10660 10660
10618 10617 10617 10616 10616 10615 10614 10614 10613 10611 10610 10609 10608 10607 10606 10606 10607 10608 10609 10609 10610 10611 10611 10612 10612 10612 10612 10613 10614 10614 10614 10615 10616 10617 10618 10619 10621 10624 10627 10628 10629 10631 10632 10633 10634 10635 10637 10638 10639 10641 10642 10643 10643 10644 10645 10646 10647 10648 10650 10651 10652 10654 10655 10656 10657 10657 10658 10659 10659 10659 10659 10659 10659 10659 10659 10659 10658 10658 10658 10657 10657 10656 10656 10656 10655 10655 10655 10655
10612 10612 10611 10610 10610 10609 10608 10607 10606 10605 10604 10603 10602 10602 10601 10601 10601 10603 10604 10605 10606 10606 10607 10608 10608 10608 10608 10609 10610 10610 10610 10611 10612 10613 10614 10616 10618 10620 10623 10624 10626 10627 10629 10631 10632 10633 10635 10635 10637 10639 10640 10641 10641 10641 10642 10643 10644 10645 10647 10648 10649 10650 10651 10652 10652 10653 10654 10654 10655 10655 10655 10655 10655 10655 10655 10654 10654 10653 10653 10652 10652 10651 10651 10651 10650 10650 10650 10650
10607 10606 10605 10605 10604 10603 10602 10601 10600 10599 10598 10597 10597 10597 10596 10596 10596 10597 10599 10600 10601 10602 10602 10603 10603 10604 10604 10605 10605 10606 10606 10606 10607 10609 10610 10612 10614 10616 10618 10620 10622 10624 10626 10627 10629 10631 10632 10633 10635 10637 10638 10638 10638 10639 10639 10640 10641 10642 10644 10645 10646 10647 10647 10648 10648 10649 10650 10650 10651 10651 10651 10650 10650 10650 10650 10650 10649 10649 10648 10648 10647 10646 10646 10646 10646 10646 10646 10646